Home   Weather   Roanoke   Past weeks
Flag for USA

Past Weather in Roanoke, Alabama, USA — Yesterday and Last 2 Weeks

Now
54 °F

Mostly cloudy.


Feels Like: 50 °F
Forecast: 63 / 43 °F
Wind: 15 mph from Northwest

Location: Callaway Airport

Current Time: Mar 31, 2020 at 8:54:49 pm

Latest Report: Mar 31, 2020 at 7:55 pm


Visibility: 10 mi

Pressure: 29.80 "Hg

Humidity: 68%

Dew Point: 44 °F

Location of RoanokeLocation

Past Weather in Roanoke — Graph

°F

Roanoke Temperature Yesterday

Maximum temperature yesterday: 76 °F (at 1:55 pm)
Minimum temperature yesterday: 52 °F (at 5:55 am)
Average temperature yesterday: 63 °F

High & Low Weather Summary for the Past Weeks

 TemperatureHumidityPressure
High84 °F (Mar 28, 3:55 pm)97% (Mar 16, 11:15 pm)30.35 "Hg (Mar 16, 11:15 pm)
Low47 °F (Mar 26, 6:55 am)23% (Mar 30, 1:15 pm)29.63 "Hg (Mar 31, 2:35 pm)
Average66 °F76%30.10 "Hg
* Reported Mar 16 7:15 pm — Mar 31 7:15 pm, Roanoke. Weather by CustomWeather, © 2020

Note: Actual official high and low records may vary slightly from our data, if they occured in-between our weather recording intervals... More about our weather records

Roanoke Weather History for the Previous 24 Hours

Scroll right to see more
 ConditionsComfort  
Time TempWeatherWind HumidityBarometerVisibility
7:15 pm
Tue, Mar 31
56 °FMostly cloudy.13 mph67%29.78 "Hg10 mi
6:55 pm56 °FMostly cloudy.13 mph71%29.78 "Hg10 mi
6:35 pm56 °FMostly cloudy.12 mph69%29.76 "Hg10 mi
6:15 pm58 °FMore clouds than sun.14 mph69%29.75 "Hg10 mi
5:55 pm59 °FMostly cloudy.20 mph67%29.74 "Hg10 mi
5:35 pm60 °FCloudy.14 mph65%29.72 "Hg10 mi
5:15 pm61 °FMostly cloudy.13 mph65%29.71 "Hg10 mi
4:55 pm62 °FMostly cloudy.21 mph65%29.70 "Hg10 mi
4:35 pm63 °FMore clouds than sun.18 mph63%29.69 "Hg10 mi
4:15 pm63 °FMostly cloudy.21 mph62%29.68 "Hg10 mi
3:55 pm64 °FMore clouds than sun.18 mph61%29.67 "Hg10 mi
3:35 pm64 °FMostly cloudy.17 mph61%29.66 "Hg10 mi
3:15 pm66 °FBroken clouds.18 mph62%29.65 "Hg10 mi
2:55 pm67 °FBroken clouds.20 mph65%29.64 "Hg10 mi
2:35 pm67 °FBroken clouds.15 mph76%29.63 "Hg10 mi
2:15 pm64 °FMostly cloudy.9 mph90%29.65 "Hg10 mi
1:35 pm62 °FLow clouds.7 mph94%29.65 "Hg10 mi
1:15 pm62 °FLow clouds.5 mph91%29.65 "Hg10 mi
12:55 pm60 °FMostly cloudy.No wind95%29.66 "Hg10 mi
12:35 pm59 °FMore clouds than sun.No wind97%29.66 "Hg10 mi
12:15 pm58 °FMore clouds than sun.No wind97%29.66 "Hg10 mi
11:55 am57 °FOvercast.No wind97%29.67 "Hg10 mi
11:35 am57 °FCloudy.No wind97%29.70 "Hg10 mi
11:15 am56 °FRain. Cloudy.No wind97%29.70 "Hg3 mi
10:55 am55 °FHeavy rain. Cloudy.No wind97%29.72 "Hg2 mi
10:35 am55 °FThundershowers. Cloudy.No wind97%29.75 "Hg7 mi
10:15 am56 °FStrong thunderstorms. Overcast.13 mph82%29.76 "Hg5 mi
9:55 am60 °FThundershowers. Mostly cloudy.13 mph59%29.67 "Hg5 mi
9:35 am60 °FMore clouds than sun.7 mph54%29.69 "Hg10 mi
8:35 am59 °FMostly cloudy.8 mph60%29.75 "Hg10 mi
8:15 am59 °FMostly cloudy.7 mph61%29.77 "Hg10 mi
7:55 am58 °FMostly cloudy.5 mph62%29.80 "Hg10 mi
7:35 am57 °FBroken clouds.3 mph64%29.81 "Hg10 mi
6:55 am56 °FSunny.3 mph65%29.82 "Hg10 mi
6:35 am56 °FScattered clouds.6 mph67%29.83 "Hg10 mi
6:15 am56 °FPassing clouds.3 mph67%29.85 "Hg10 mi
5:55 am56 °FPassing clouds.3 mph77%29.84 "Hg10 mi
5:35 am56 °FPassing clouds.3 mph83%29.86 "Hg10 mi
5:15 am56 °FPassing clouds.No wind82%29.86 "Hg10 mi
4:55 am56 °FPartly cloudy.No wind87%29.87 "Hg10 mi
4:35 am56 °FMostly cloudy.No wind81%29.88 "Hg10 mi
4:15 am57 °FOvercast.No wind80%29.89 "Hg10 mi
3:55 am57 °FMostly cloudy.No wind78%29.89 "Hg10 mi
3:35 am56 °FMostly cloudy.No wind85%29.90 "Hg10 mi
3:15 am55 °FPassing clouds.No wind87%29.90 "Hg10 mi
2:55 am56 °FPartly cloudy.No wind82%29.89 "Hg10 mi
2:35 am56 °FPassing clouds.No wind76%29.91 "Hg10 mi
2:15 am57 °FMostly cloudy.No wind76%29.92 "Hg10 mi
1:55 am56 °FPassing clouds.No wind74%29.94 "Hg10 mi
1:35 am56 °FPassing clouds.No wind71%29.94 "Hg10 mi
12:55 am56 °FClear.No wind72%29.94 "Hg10 mi
12:35 am57 °FClear.No wind74%29.94 "Hg10 mi
11:55 pm
Mon, Mar 30
58 °FClear.No wind68%29.96 "Hg10 mi
11:35 pm58 °FClear.No wind66%29.98 "Hg10 mi
11:15 pm58 °FClear.No wind67%29.97 "Hg10 mi
10:55 pm58 °FClear.No wind67%29.99 "Hg10 mi
10:35 pm58 °FClear.No wind63%30.00 "Hg10 mi
10:15 pm58 °FPassing clouds.No wind70%29.98 "Hg10 mi
9:55 pm59 °FPassing clouds.No wind69%30.03 "Hg10 mi
9:35 pm60 °FPassing clouds.5 mph60%30.04 "Hg10 mi
9:15 pm60 °FClear.No wind62%30.02 "Hg10 mi
8:55 pm61 °FClear.No wind56%30.06 "Hg10 mi
8:35 pm63 °FClear.3 mph46%30.05 "Hg10 mi
8:15 pm65 °FPassing clouds.No wind38%30.05 "Hg10 mi
Weather by CustomWeather, © 2020

See weather overview

Advertising